sat.trackr.live / text

‹ back to catalog

STARLINK-30178

NORAD 57447 · 2023-105T

PAYLOAD ACTIVE UNKNOWN

§ Identity

Operator
Country
US
Launch date
2023-07-24
Launch site
AFETR
Launch vehicle
Mass (kg)
RCS (m²)

Purposes: comms

External: N2YO · Heavens-Above · Gunter

§ Orbital elements

Epoch: 2026-09-20T15:11:03.832800Z

Period
94.27 min
Inclination
42.9985°
Eccentricity
0.0001259
Mean motion
15.27586825 rev/d
Perigee alt
482.2 km
Apogee alt
483.9 km
Semi-major
6,861.2 km
B*
6.3561e-5
RAAN
239.0980°
Arg perigee
276.7757°
Mean anomaly
83.2951°
Rev number
17,539

§ Raw data

STARLINK-301781 57447U 23105T   26263.63268325  .00001488  00000+0  63561-4 0  99972 57447  42.9985 239.0980 0001259 276.7757  83.2951 15.27586825175397

JSON: /api/v1/satellites/57447 · /tle

For live sub-satellite position, see the globe view (requires WebGL).

§ Visibility from observer

Set your observer location to see the next 7 days of passes ≥ 10°. The values pass through the URL so the page stays shareable.

No JS? Fill the form by hand. The geolocation button needs JavaScript.